Location: Voyageurs National Park
(48.5020°N, 92.9292°W)
Time: 16:29:00
(UTC-05:00)

Cosmos 1844 Rocket - Pass Details

Date: 19 January 2018
Orbit: 823 x 846 km, 71.0° (Epoch: 21 May)

Event Time Altitude Azimuth Distance (km) Brightness Sun altitude
Exits shadow 04:47:37 41° 153° (SSE) 1,182 3.5 -30.6°
Maximum altitude 04:49:00 51° 110° (ESE) 1,034 3.3 -30.4°
Drops below altitude 10° 04:54:22 10° 36° (NE) 2,432 5.5 -29.5°
Sets 04:56:51 0° 32° (NNE) 3,369 6.3 -29.1°
